Starlink 3301

operational
NORAD ID: 50169 Int'l Des: 2021-125 Owner: SPXS Country: US Constellation: starlink
LEOCIRCULAR

Über Starlink 3301

Beschreibung wird geladen...

Live-Position

3D-Globus wird geladen...

Nächste Überflüge

Höhenverlauf

Altitude vs Time

uPlot chart will show altitude changes over time

Zweizeiliger Elementsatz

1 50169U 21125P 25352.47031636 .00000354 00000-0 40298-4 0 9998
2 50169 53.2168 253.7290 0001366 90.9548 269.1601 15.08844290224348
Epoch: 18. Dez. 2025 • Age: 9 hours

Aktueller Status

Höhe 546.9 km
Geschwindigkeit 7.59 km/s
Subsatellitenpunkt -23.30°S, 164.86°W
Startdatum 18. Dez. 2021
Alter 4 years
Typ internet

Technische Details

Klassifizierung Payload
Masse 290.00 kg
Trockenmasse 270.00 kg
Gesamtmasse 290.00 kg
Länge 0.20 m
Durchmesser 2.80 m
Spannweite 9.00 m
Form Box + pan
Hersteller SPXS
Bus-Typ Starlink
Phasenstatus In Orbit
Besitzer/Staat SPXS/US

Große Konstellationen

Loading constellations...